This demonstration page uses our WeatherBlox Daily Observations layout. Learn more.

38.89511, -77.03637

Hourly Observations for August 27, 2015

Temp ( °F °C ) Dew Point ( °F °C ) Humidity (%) Winds ( mph kmh ) Pressure ( in mb ) Visibility ( mi km ) Precip ( " mm )
12:52 am 00:52 Mostly Clear 68 20 56 13.3 65 65 NNW 6 9 30.08 1019 10 16.0934 0 0
1:52 am 01:52 Partly Cloudy 67 19.4 56 13.3 68 68 NNW 7 11 30.08 1019 10 16.0934 0 0
2:52 am 02:52 Clear 65 18.3 57 13.9 76 76 N 5 7 30.07 1018 10 16.0934 0 0
3:52 am 03:52 Clear 65 18.3 57 13.9 76 76 NW 5 7 30.08 1019 10 16.0934 0 0
4:52 am 04:52 Clear 65 18.3 56 13.3 73 73 NW 8 13 30.08 1019 10 16.0934 0 0
5:52 am 05:52 Clear 63 17.2 56 13.3 78 78 NNW 9 15 30.09 1019 10 16.0934 0 0
6:52 am 06:52 Partly Cloudy 64 17.8 56 13.3 75 75 NNW 12 19 30.1 1019 10 16.0934 0 0
7:52 am 07:52 Partly Cloudy 67 19.4 57 13.9 71 71 N 13 20 30.12 1020 10 16.0934 0 0
8:52 am 08:52 Mostly Cloudy 71 21.7 57 13.9 61 61 N 8 13 30.13 1020 10 16.0934 0 0
9:52 am 09:52 Mostly Cloudy 73 22.8 55 12.8 53 53 N 13 20 30.13 1020 10 16.0934 0 0
10:52 am 10:52 Mostly Cloudy 75 23.9 54 12.2 48 48 NNW 9 15 30.15 1021 10 16.0934 0 0
11:52 am 11:52 Partly Cloudy 77 25 55 12.8 47 47 Calm 30.14 1021 10 16.0934 0 0
12:52 pm 12:52 Partly Cloudy 78 25.6 55 12.8 45 45 E 6 9 30.12 1020 10 16.0934 0 0
1:52 pm 13:52 Mostly Cloudy 80 26.7 54 12.2 41 41 NNE 7 11 30.11 1020 10 16.0934 0 0
2:52 pm 14:52 Mostly Cloudy 79 26.1 54 12.2 42 42 VRB 5 7 30.09 1019 10 16.0934 0 0
3:52 pm 15:52 Mostly Cloudy 82 27.8 54 12.2 38 38 VRB 6 9 30.08 1019 10 16.0934 0 0
4:52 pm 16:52 Mostly Cloudy 81 27.2 55 12.8 41 41 N 12 19 30.08 1019 10 16.0934 0 0
5:52 pm 17:52 Mostly Cloudy 80 26.7 55 12.8 42 42 N 7 11 30.09 1019 10 16.0934 0 0
6:52 pm 18:52 Partly Cloudy 78 25.6 54 12.2 43 43 N 7 11 30.09 1019 10 16.0934 0 0
7:52 pm 19:52 Partly Cloudy 76 24.4 55 12.8 48 48 N 8 13 30.1 1019 10 16.0934 0 0
8:52 pm 20:52 Mostly Clear 75 23.9 56 13.3 52 52 NNE 7 11 30.12 1020 10 16.0934 0 0
9:52 pm 21:52 Clear 73 22.8 58 14.4 59 59 E 6 9 30.14 1021 10 16.0934 0 0
10:52 pm 22:52 Partly Cloudy 75 23.9 57 13.9 54 54 NE 3 6 30.16 1021 10 16.0934 0 0
11:52 pm 23:52 Mostly Clear 72 22.2 58 14.4 61 61 Calm 30.16 1021 10 16.0934 0 0

Powered by AerisWeather